Weather History for LGZA - June, 2014

Change the Weather History Date:

Friday, June 6, 2014

  Actual Average Record
Temperature  
Mean Temperature 68 °F -  
Max Temperature 84 °F 83 °F 87 °F (1998)
Min Temperature 53 °F 66 °F 53 °F (2006)
Cooling Degree Days 4    
Growing Degree Days 18 (Base 50)    
Moisture  
Dew Point 53 °F    
Average Humidity 54    
Maximum Humidity 82    
Minimum Humidity 28    
Precipitation  
Precipitation 0.00 in 0.01 in - ()
Sea Level Pressure  
Sea Level Pressure 29.94 in    
Wind  
Wind Speed 5 mph ()    
Max Wind Speed 16 mph    
Max Gust Speed -    
Visibility 6.2 miles    
Events Rain    
Averages and records for this station are not official NWS values.
T = Trace of Precipitation, MM = Missing Value Source: Averaged Metar Reports

Daily Weather History Graph

Daily Weather History Graph

Search for Another Location

Airport or City:

Trip Planner

Search our weather history database for the weather conditions in past years. The results will help you decide how hot, cold, wet, or windy it might be!

Date:

Astronomy

Jun. 06, 2014 Rise Set
Actual Time 6:14 AM EEST 8:55 PM EEST
Civil Twilight 5:43 AM EEST 9:26 PM EEST
Nautical Twilight 5:05 AM EEST 10:05 PM EEST
Astronomical Twilight 4:22 AM EEST 10:48 PM EEST
Moon 2:04 PM EEST (6/6) 1:50 AM EEST (6/6)
Length of Visible Light 15h 42m
Length of Day
14h 40m
First Quarter, 55% of the Moon is Illuminated
Jun 6
First Quarter
Jun 13
Full
Jun 19
Last Quarter
Jun 27
New
Jul 5
First Quarter

Hourly Weather History & Observations

Time (EEST) Temp. Heat Index Dew Point Humidity Pressure Visibility Wind Dir Wind Speed Gust Speed Precip Events Conditions
12:20 AM 66.2 °F - 48.2 °F 52% 29.95 in - Variable 3.5 mph - N/A   Unknown
12:50 AM 68.0 °F - 46.4 °F 46% 29.95 in - NW 9.2 mph - N/A Rain Light Rain
1:20 AM 68.0 °F - 46.4 °F 46% 29.95 in - NNW 9.2 mph - N/A   Unknown
1:50 AM 62.6 °F - 46.4 °F 55% 29.95 in - Variable 2.3 mph - N/A Rain Light Rain
2:20 AM 60.8 °F - 48.2 °F 63% 29.95 in - Variable 2.3 mph - N/A Rain Light Rain
3:20 AM 60.8 °F - 48.2 °F 63% 29.95 in - Calm Calm - N/A   Clear
3:50 AM 62.6 °F - 53.6 °F 72% 29.95 in - Calm Calm - N/A   Clear
4:20 AM 59.0 °F - 48.2 °F 67% 29.95 in - Calm Calm - N/A   Clear
4:50 AM 60.8 °F - 50.0 °F 68% 29.95 in - Calm Calm - N/A   Clear
5:20 AM 60.8 °F - 50.0 °F 68% 29.98 in - Calm Calm - N/A   Clear
5:50 AM 59.0 °F - 48.2 °F 67% 29.95 in - Calm Calm - N/A   Clear
6:20 AM 59.0 °F - 48.2 °F 67% 29.95 in - Calm Calm - N/A   Clear
6:50 AM 53.6 °F - 48.2 °F 82% 29.95 in - Calm Calm - N/A   Clear
7:20 AM 59.0 °F - 50.0 °F 72% 29.95 in - Calm Calm - N/A   Clear
7:50 AM 66.2 °F - 55.4 °F 68% 29.95 in - North 4.6 mph - N/A   Clear
8:20 AM 71.6 °F - 57.2 °F 60% 29.95 in - NNW 4.6 mph - N/A   Clear
8:50 AM 71.6 °F - 60.8 °F 69% 29.98 in - North 4.6 mph - N/A   Clear
9:20 AM 73.4 °F - 59.0 °F 61% 29.98 in - NNE 4.6 mph - N/A   Clear
9:50 AM 75.2 °F - 60.8 °F 61% 29.95 in - NE 4.6 mph - N/A   Clear
10:20 AM 75.2 °F - 60.8 °F 61% 29.95 in - ENE 4.6 mph - N/A   Clear
10:50 AM 75.2 °F - 60.8 °F 61% 29.95 in - NE 4.6 mph - N/A   Clear
11:20 AM 75.2 °F - 60.8 °F 61% 29.98 in - NNE 4.6 mph - N/A   Clear
11:50 AM 77.0 °F - 60.8 °F 57% 29.95 in - SE 5.8 mph - N/A   Clear
12:20 PM 78.8 °F - 60.8 °F 54% 29.95 in - NE 4.6 mph - N/A   Clear
12:50 PM 77.0 °F - 62.6 °F 61% 29.95 in - NNE 5.8 mph - N/A   Clear
1:20 PM 80.6 °F 81.1 °F 59.0 °F 48% 29.95 in - NNE 4.6 mph - N/A   Clear
1:50 PM 82.4 °F 81.7 °F 55.4 °F 39% 29.95 in 6.2 mi North 4.6 mph - N/A   Partly Cloudy
2:20 PM 84.2 °F 82.8 °F 53.6 °F 35% 29.95 in 6.2 mi SE 8.1 mph - N/A   Partly Cloudy
2:50 PM 82.4 °F 82.9 °F 60.8 °F 48% 29.92 in - ENE 5.8 mph - N/A   Clear
3:20 PM 84.2 °F - 50.0 °F 30% 29.92 in - North 12.7 mph - N/A   Clear
3:50 PM 84.2 °F - 51.8 °F 33% 29.92 in - North 15.0 mph - N/A   Clear
4:20 PM 84.2 °F - 51.8 °F 33% 29.92 in - NNW 13.8 mph - N/A   Clear
4:50 PM 84.2 °F - 51.8 °F 33% 29.92 in - North 13.8 mph - N/A   Clear
5:20 PM 84.2 °F - 50.0 °F 30% 29.92 in - NNW 15.0 mph - N/A   Clear
5:50 PM 82.4 °F - 50.0 °F 32% 29.92 in - North 12.7 mph - N/A   Clear
6:50 PM 82.4 °F - 46.4 °F 28% 29.89 in - NW 13.8 mph - N/A   Clear
7:20 PM 80.6 °F - 50.0 °F 34% 29.89 in - NW 15.0 mph - N/A   Clear
7:50 PM 77.0 °F - 51.8 °F 41% 29.89 in - NW 16.1 mph - N/A   Clear
8:20 PM 75.2 °F - 50.0 °F 41% 29.89 in - NNW 13.8 mph - N/A   Clear
8:50 PM 73.4 °F - 51.8 °F 47% 29.89 in - NNW 13.8 mph - N/A   Clear
9:20 PM 73.4 °F - 51.8 °F 47% 29.89 in - NNW 9.2 mph - N/A   Clear
9:50 PM 73.4 °F - 55.4 °F 53% 29.92 in - North 4.6 mph - N/A   Clear
10:20 PM 71.6 °F - 55.4 °F 57% 29.92 in - North 4.6 mph - N/A   Clear
11:20 PM 69.8 °F - 57.2 °F 64% 29.92 in - North 4.6 mph - N/A   Unknown
11:50 PM 64.4 °F - 57.2 °F 77% 29.92 in - Variable 1.2 mph - N/A   Unknown